Location: Cazarilh
(42.9578°N, 0.5819°E)
Time: 12:13:09
(UTC+00:00)

Meteor 1-13 Rocket - Pass Details

Date: 11 December 2019
Orbit: 831 x 912 km, 81.3° (Epoch: 26 January)

Event Time Altitude Azimuth Distance (km) Brightness Sun altitude
Rises 06:38:37 0° 345° (NNW) 3,386 7.0 -7.2°
Reaches altitude 10° 06:41:04 10° 340° (NNW) 2,452 6.2 -6.8°
Maximum altitude 06:46:24 52° 266° (W) 1,042 4.4 -6.0°
Drops below altitude 10° 06:51:48 10° 191° (S) 2,468 6.9 -5.1°
Sets 06:54:17 0° 187° (S) 3,411 7.6 -4.7°
